User: anonymous   Login
Location: Montague
(41.3030°N, 74.7940°W)
Time: 15:08:40
(UTC-04:00)
Language:

Cosmos 1461 - Orbit

View from above orbital plane
View from above orbital plane
View from above satellite
View from above satellite

Ground track
Ground track

The orbit data is extracted from the following two-line orbital elements,

1 14064U 83044A   17176.22266680 +.00000126 +00000-0 +26179-4 0  9996
2 14064 065.0014 259.9666 0091320 033.3238 327.3580 14.93639309724551
Epoch (UTC): 25 June 2017 05:20:38
Eccentricity: 0.0091320
inclination: 65.0014°
perigee height: 523 km
apogee height: 650 km
right ascension of ascending node: 259.9666°
argument of perigee: 33.3238°
revolutions per day: 14.93639309
mean anomaly at epoch: 327.3580°
orbit number at epoch: 72455

The dashed part of the orbit path shows where the satellite is in the earth's shadow,  

DLR